Weather History for Dewar Lakes, NU

Change the Weather History Date:

Friday, September 7, 2012

  Actual Average Record
Temperature  
Mean Temperature 30 °F -  
Max Temperature 37 °F 33 °F 46 °F (2005)
Min Temperature 24 °F 26 °F 23 °F (1999)
Degree Days  
Heating Degree Days 34    
Moisture  
Dew Point -    
Average Humidity    
Maximum Humidity    
Minimum Humidity    
Precipitation  
Precipitation 0.00 in - - ()
Sea Level Pressure  
Sea Level Pressure 30.04 in    
Wind  
Wind Speed 4 mph ()    
Max Wind Speed 10 mph    
Max Gust Speed -    
Averages and records for this station are not official NWS values.
T = Trace of Precipitation, MM = Missing Value Source: Averaged Metar Reports

Daily Weather History Graph

Daily Weather History Graph

Search for Another Location

Airport:

Trip Planner

Search our weather history database for the weather conditions in past years. The results will help you decide how hot, cold, wet, or windy it might be!

Date:

Astronomy

Sep. 07, 2012 Rise Set
Actual Time 5:32 AM EDT 7:50 PM EDT
Civil Twilight 4:28 AM EDT 8:52 PM EDT
Nautical Twilight 2:54 AM EDT 10:24 PM EDT
Astronomical Twilight Sun does not rise Sun does not rise
Moon 7:01 PM EDT (9/7) 5:03 PM EDT (9/7)
Length of Visible Light 16h 24m
Length of Day
14h 17m
Waning Gibbous, 58% of the Moon is Illuminated
Sep 7
Waning Gibbous
Sep 8
Last Quarter
Sep 15
New
Sep 22
First Quarter
Sep 29
Full

Hourly Weather History & Observations

Time (EDT) Temp. Windchill Dew Point Humidity Pressure Visibility Wind Dir Wind Speed Gust Speed Precip Events Conditions
12:00 AM 28.4 °F 21.2 °F - N/A% 30.11 in - West 6.9 mph - N/A   Overcast
1:00 AM 28.4 °F 24.6 °F - N/A% 30.10 in - WNW 3.5 mph - N/A   Overcast
2:00 AM 28 °F - - % 30.10 in - NNW 5.8 mph - -   Overcast
2:00 AM 28.4 °F 21.2 °F - N/A% 30.10 in - NNW 6.9 mph - N/A   Overcast
2:30 AM 28.4 °F 24.6 °F - N/A% 29.97 in - West 3.5 mph - N/A   Overcast
2:45 AM 28.4 °F 23.3 °F - N/A% 29.97 in - NNW 4.6 mph - N/A   Overcast
3:00 AM 28.4 °F 21.2 °F - N/A% 30.11 in - NW 6.9 mph - N/A   Overcast
3:33 AM 28.4 °F 22.2 °F - N/A% 29.98 in - WNW 5.8 mph - N/A   Overcast
3:48 AM 28.4 °F 20.4 °F - N/A% 29.98 in - NW 8.1 mph - N/A   Overcast
3:59 AM 26.6 °F 21.2 °F - N/A% 29.98 in - NW 4.6 mph - N/A   Overcast
4:00 AM 26.6 °F 20.0 °F - N/A% 30.11 in - NNW 5.8 mph - N/A   Overcast
4:21 AM 26.6 °F 19.1 °F - N/A% 29.97 in - NNW 6.9 mph - N/A   Overcast
4:23 AM 26.6 °F - - N/A% 29.97 in - NNW 2.3 mph - N/A   Overcast
5:00 AM 27 °F - - % 30.11 in - NW 6.9 mph - -   Overcast
5:00 AM 26.6 °F 17.5 °F - N/A% 30.11 in - NNW 9.2 mph - N/A   Overcast
6:00 AM 26.6 °F 20.0 °F - N/A% 30.11 in - North 5.8 mph - N/A   Overcast
7:00 AM 24.8 °F 19.1 °F - N/A% 30.11 in - North 4.6 mph - N/A   Overcast
7:16 AM 24.8 °F 20.5 °F - N/A% 29.98 in - North 3.5 mph - N/A   Overcast
7:26 AM 24.8 °F 17.9 °F - N/A% 29.98 in - NNW 5.8 mph - N/A   Overcast
7:36 AM 24.8 °F 19.1 °F - N/A% 29.98 in - North 4.6 mph - N/A   Overcast
7:59 AM 24.8 °F - - N/A% 29.98 in - North 2.3 mph - N/A   Overcast
8:00 AM 24 °F - - % 30.11 in - NW 4.6 mph - -   Overcast
8:00 AM 24.8 °F - - N/A% 30.11 in - North 2.3 mph - N/A   Overcast
9:00 AM 24.8 °F - - N/A% 30.11 in - ENE 2.3 mph - N/A   Overcast
9:11 AM 24.8 °F - - N/A% 29.97 in - Calm Calm - N/A   Overcast
9:49 AM 24.8 °F - - N/A% 29.97 in - Calm Calm - N/A   Overcast
9:56 AM 24.8 °F - - N/A% 29.96 in - Calm Calm - N/A   Overcast
10:00 AM 24.8 °F - - N/A% 30.10 in - Calm Calm - N/A   Overcast
10:07 AM 24.8 °F - - N/A% 29.96 in - WSW 2.3 mph - N/A   Overcast
10:19 AM 24.8 °F 19.1 °F - N/A% 29.97 in - South 4.6 mph - N/A   Overcast
10:42 AM 24.8 °F 20.5 °F - N/A% 29.96 in - WNW 3.5 mph - N/A   Overcast
10:52 AM 24.8 °F - - N/A% 29.96 in - West 2.3 mph - N/A   Overcast
11:00 AM 27 °F - - % 30.09 in - Calm Calm - -  
11:00 AM 26.6 °F - - N/A% 30.09 in - Calm Calm - N/A   Scattered Clouds
11:05 AM 26.6 °F 22.6 °F - N/A% 29.96 in - WNW 3.5 mph - N/A   Mostly Cloudy
11:13 AM 26.6 °F 22.6 °F - N/A% 29.96 in - NNW 3.5 mph - N/A   Partly Cloudy
12:00 PM 28.4 °F 24.6 °F - N/A% 30.07 in - ESE 3.5 mph - N/A   Partly Cloudy
1:00 PM 32.0 °F - - N/A% 30.07 in - SSW 2.3 mph - N/A   Clear
2:00 PM 33 °F - - % 30.07 in - Calm Calm - -  
2:00 PM 33.8 °F - - N/A% 30.07 in - Calm Calm - N/A   Mostly Cloudy
3:00 PM 33.8 °F - - N/A% 30.07 in - Calm Calm - N/A   Overcast
4:00 PM 35.6 °F - - N/A% 30.06 in - East 2.3 mph - N/A   Overcast
5:00 PM 37 °F - - % 30.06 in - ESE 2.3 mph - -  
5:00 PM 37.4 °F - - N/A% 30.06 in - Calm Calm - N/A   Partly Cloudy
6:00 PM 35.6 °F 31.7 °F - N/A% 30.06 in - SE 4.6 mph - N/A   Clear
7:00 PM 35.6 °F 30.7 °F - N/A% 30.06 in - SE 5.8 mph - N/A   Clear
8:00 PM 35 °F - - % 30.06 in - ESE 6.9 mph - -  
8:00 PM 33.8 °F 27.0 °F - N/A% 30.06 in - ESE 8.1 mph - N/A   Clear
9:00 PM 33.8 °F 26.4 °F - N/A% 30.04 in - SE 9.2 mph - N/A   Clear
10:00 PM 33.8 °F 25.8 °F - N/A% 30.05 in - SSE 10.4 mph - N/A   Partly Cloudy
11:00 PM 35 °F - - % 30.04 in - SSE 9.2 mph - -  
11:00 PM 33.8 °F 26.4 °F - N/A% 30.04 in - SSE 9.2 mph - N/A   Clear